| time (UTC) | temp F | wind direction | speed MPH | gust MPH | rain 1hr in | rain 24hr in | rain mn in | humidity % | barometer mb |
| 20260508100903 | 65 | 51 | 5.0 | 11.0 | 0.00 | 0.39 | 0.05 | 75 | 1014.1 |
| 20260508100003 | 63 | 37 | 5.0 | 11.0 | 0.00 | 0.39 | 0.05 | 78 | 1013.8 |
| 20260508095403 | 63 | 45 | 5.0 | 12.0 | 0.00 | 0.39 | 0.05 | 77 | 1013.8 |
| 20260508094504 | 63 | 38 | 5.0 | 10.0 | 0.00 | 0.39 | 0.05 | 78 | 1014.3 |
| 20260508093603 | 62 | 64 | 5.0 | 9.0 | 0.00 | 0.39 | 0.05 | 80 | 1014.3 |
| 20260508092703 | 61 | 74 | 4.0 | 8.0 | 0.00 | 0.39 | 0.05 | 82 | 1014.2 |
| 20260508091803 | 61 | 74 | 4.0 | 9.0 | 0.00 | 0.39 | 0.05 | 82 | 1014.3 |
| 20260508090904 | 61 | 69 | 5.0 | 13.0 | 0.00 | 0.39 | 0.05 | 81 | 1014.1 |
| 20260508090003 | 62 | 75 | 5.0 | 11.0 | 0.00 | 0.39 | 0.05 | 81 | 1014.0 |
| 20260508085403 | 62 | 70 | 6.0 | 11.0 | 0.00 | 0.39 | 0.05 | 81 | 1014.2 |
| 20260508084504 | 61 | 70 | 5.0 | 12.0 | 0.00 | 0.39 | 0.05 | 81 | 1014.2 |
| 20260508083604 | 61 | 49 | 5.0 | 8.0 | 0.00 | 0.39 | 0.05 | 82 | 1014.0 |
| 20260508082703 | 59 | 62 | 4.0 | 8.0 | 0.00 | 0.39 | 0.05 | 84 | 1013.9 |
| 20260508081803 | 59 | 46 | 4.0 | 7.0 | 0.00 | 0.39 | 0.05 | 86 | 1013.9 |
| 20260508080904 | 59 | 44 | 4.0 | 7.0 | 0.00 | 0.39 | 0.05 | 88 | 1014.0 |
| 20260508080004 | 58 | 52 | 4.0 | 9.0 | 0.00 | 0.39 | 0.05 | 89 | 1013.9 |
| 20260508075404 | 58 | 52 | 4.0 | 9.0 | 0.00 | 0.39 | 0.05 | 90 | 1013.8 |
| 20260508074504 | 58 | 46 | 4.0 | 9.0 | 0.00 | 0.39 | 0.05 | 90 | 1013.6 |
| 20260508073603 | 58 | 70 | 4.0 | 8.0 | 0.00 | 0.39 | 0.05 | 90 | 1013.8 |
| 20260508072703 | 58 | 68 | 4.0 | 8.0 | 0.00 | 0.39 | 0.05 | 90 | 1013.9 |
| 20260508071804 | 58 | 59 | 4.0 | 8.0 | 0.00 | 0.39 | 0.05 | 90 | 1013.5 |
| 20260508070903 | 58 | 65 | 5.0 | 9.0 | 0.00 | 0.39 | 0.05 | 90 | 1013.6 |
| 20260508070004 | 58 | 73 | 5.0 | 9.0 | 0.00 | 0.39 | 0.05 | 90 | 1013.4 |
| 20260508065403 | 58 | 60 | 4.0 | 7.0 | 0.00 | 0.39 | 0.05 | 90 | 1013.4 |
| 20260508064503 | 58 | 53 | 3.0 | 6.0 | 0.00 | 0.39 | 0.05 | 90 | 1013.6 |
| 20260508063603 | 57 | 46 | 4.0 | 6.0 | 0.00 | 0.39 | 0.05 | 90 | 1013.3 |
| 20260508062703 | 57 | 51 | 3.0 | 6.0 | 0.00 | 0.39 | 0.05 | 90 | 1013.6 |
| 20260508061803 | 57 | 53 | 3.0 | 5.0 | 0.00 | 0.39 | 0.05 | 90 | 1013.3 |
| 20260508060904 | 57 | 46 | 3.0 | 6.0 | 0.00 | 0.39 | 0.05 | 90 | 1013.3 |
| 20260508060003 | 57 | 46 | 4.0 | 6.0 | 0.00 | 0.39 | 0.05 | 90 | 1013.0 |
| 20260508055403 | 57 | 53 | 3.0 | 6.0 | 0.00 | 0.39 | 0.05 | 90 | 1013.0 |
| 20260508054504 | 56 | 37 | 3.0 | 6.0 | 0.00 | 0.39 | 0.05 | 90 | 1013.0 |
| 20260508053603 | 56 | 46 | 3.0 | 6.0 | 0.00 | 0.39 | 0.05 | 90 | 1013.0 |
| 20260508052703 | 56 | 53 | 2.0 | 4.0 | 0.00 | 0.39 | 0.05 | 91 | 1012.6 |
| 20260508051803 | 55 | 61 | 2.0 | 4.0 | 0.00 | 0.39 | 0.05 | 91 | 1012.4 |
| 20260508050903 | 55 | 101 | 2.0 | 4.0 | 0.00 | 0.39 | 0.05 | 91 | 1012.2 |
| 20260508050004 | 55 | 112 | 2.0 | 5.0 | 0.00 | 0.39 | 0.05 | 91 | 1012.0 |
| 20260508045403 | 56 | 83 | 2.0 | 5.0 | 0.00 | 0.39 | 0.05 | 91 | 1011.6 |
| 20260508044504 | 56 | 87 | 2.0 | 4.0 | 0.00 | 0.39 | 0.05 | 91 | 1011.6 |
| 20260508043603 | 56 | 131 | 3.0 | 5.0 | 0.00 | 0.39 | 0.05 | 91 | 1011.5 |
| 20260508042703 | 56 | 100 | 2.0 | 4.0 | 0.00 | 0.39 | 0.05 | 91 | 1011.6 |
| 20260508041803 | 56 | 76 | 2.0 | 5.0 | 0.00 | 0.39 | 0.05 | 91 | 1011.5 |
| 20260508040903 | 56 | 39 | 2.0 | 4.0 | 0.00 | 0.39 | 0.05 | 91 | 1011.5 |
| 20260508040003 | 56 | 42 | 3.0 | 5.0 | 0.00 | 0.39 | 0.05 | 92 | 1011.5 |
| 20260508035403 | 56 | 74 | 3.0 | 5.0 | 0.00 | 0.39 | 0.05 | 92 | 1011.5 |
| 20260508034504 | 56 | 113 | 2.0 | 6.0 | 0.00 | 0.39 | 0.05 | 92 | 1011.7 |
| 20260508033603 | 56 | 51 | 2.0 | 5.0 | 0.00 | 0.39 | 0.05 | 91 | 1011.6 |
| 20260508032703 | 56 | 69 | 3.0 | 5.0 | 0.00 | 0.39 | 0.05 | 91 | 1012.0 |
| 20260508031803 | 56 | 54 | 3.0 | 5.0 | 0.00 | 0.39 | 0.05 | 92 | 1012.0 |
| 20260508030903 | 56 | 46 | 3.0 | 5.0 | 0.00 | 0.39 | 0.05 | 92 | 1012.0 |
| 20260508030003 | 56 | 54 | 2.0 | 6.0 | 0.00 | 0.39 | 0.05 | 93 | 1012.0 |
| 20260508025403 | 56 | 54 | 2.0 | 6.0 | 0.00 | 0.39 | 0.05 | 92 | 1012.0 |
| 20260508024504 | 56 | 67 | 2.0 | 5.0 | 0.00 | 0.39 | 0.05 | 92 | 1011.9 |
| 20260508023603 | 56 | 117 | 2.0 | 4.0 | 0.00 | 0.39 | 0.05 | 92 | 1011.9 |
| 20260508022703 | 57 | 85 | 1.0 | 4.0 | 0.00 | 0.39 | 0.05 | 92 | 1012.0 |
| 20260508021803 | 57 | 44 | 2.0 | 4.0 | 0.00 | 0.39 | 0.05 | 92 | 1011.9 |
| 20260508020903 | 57 | 61 | 2.0 | 3.0 | 0.00 | 0.39 | 0.05 | 92 | 1011.9 |
| 20260508020004 | 57 | 88 | 2.0 | 4.0 | 0.00 | 0.39 | 0.05 | 92 | 1011.8 |
| 20260508015403 | 57 | 71 | 3.0 | 5.0 | 0.00 | 0.39 | 0.05 | 92 | 1011.9 |
| 20260508014504 | 57 | 61 | 3.0 | 6.0 | 0.00 | 0.39 | 0.05 | 92 | 1011.9 |
| 20260508013603 | 58 | 52 | 4.0 | 9.0 | 0.00 | 0.39 | 0.05 | 92 | 1011.9 |
| 20260508012703 | 58 | 47 | 4.0 | 8.0 | 0.00 | 0.39 | 0.05 | 92 | 1012.1 |
| 20260508011803 | 58 | 48 | 4.0 | 10.0 | 0.00 | 0.39 | 0.05 | 92 | 1012.1 |
| 20260508010903 | 58 | 58 | 4.0 | 10.0 | 0.00 | 0.39 | 0.05 | 93 | 1012.1 |
| 20260508010003 | 58 | 75 | 4.0 | 9.0 | 0.00 | 0.39 | 0.05 | 93 | 1012.3 |
| 20260508005403 | 58 | 80 | 4.0 | 7.0 | 0.00 | 0.39 | 0.05 | 93 | 1012.3 |
| 20260508004503 | 58 | 60 | 2.0 | 5.0 | 0.00 | 0.39 | 0.05 | 93 | 1012.4 |
| 20260508003603 | 58 | 65 | 2.0 | 4.0 | 0.00 | 0.39 | 0.05 | 92 | 1012.5 |
| 20260508002703 | 58 | 66 | 2.0 | 6.0 | 0.00 | 0.39 | 0.05 | 92 | 1012.7 |
| 20260508001803 | 57 | 59 | 3.0 | 6.0 | 0.00 | 0.39 | 0.05 | 92 | 1012.8 |
| 20260508000903 | 57 | 84 | 4.0 | 9.0 | 0.00 | 0.39 | 0.05 | 92 | 1012.6 |
| 20260508000004 | 57 | 86 | 4.0 | 6.0 | 0.01 | 0.39 | 0.05 | 92 | 1012.7 |
| 20260507235403 | 57 | 87 | 4.0 | 7.0 | 0.02 | 0.39 | 0.05 | 91 | 1012.9 |
| 20260507234503 | 57 | 68 | 4.0 | 8.0 | 0.03 | 0.39 | 0.05 | 90 | 1012.9 |
| 20260507233603 | 57 | 57 | 4.0 | 8.0 | 0.04 | 0.39 | 0.05 | 90 | 1013.0 |
| 20260507232703 | 57 | 42 | 5.0 | 9.0 | 0.05 | 0.39 | 0.05 | 90 | 1013.2 |
| 20260507231803 | 57 | 47 | 5.0 | 12.0 | 0.05 | 0.39 | 0.05 | 89 | 1013.3 |
| 20260507230903 | 57 | 35 | 5.0 | 11.0 | 0.05 | 0.39 | 0.05 | 89 | 1013.5 |
| 20260507230003 | 57 | 48 | 3.0 | 8.0 | 0.04 | 0.39 | 0.04 | 87 | 1013.5 |
| 20260507225403 | 57 | 46 | 4.0 | 10.0 | 0.04 | 0.38 | 0.04 | 86 | 1013.5 |
| 20260507224504 | 58 | 56 | 5.0 | 9.0 | 0.02 | 0.36 | 0.02 | 84 | 1013.8 |
| 20260507223603 | 58 | 67 | 5.0 | 9.0 | 0.01 | 0.35 | 0.01 | 83 | 1013.5 |
| 20260507222703 | 58 | 66 | 5.0 | 11.0 | 0.00 | 0.34 | 0.00 | 83 | 1013.6 |
| 20260507221803 | 58 | 61 | 5.0 | 11.0 | 0.00 | 0.34 | 0.00 | 84 | 1013.3 |
| 20260507220903 | 57 | 68 | 4.0 | 12.0 | 0.00 | 0.34 | 0.00 | 86 | 1013.4 |
| 20260507220004 | 57 | 62 | 3.0 | 7.0 | 0.00 | 0.34 | 0.00 | 89 | 1013.3 |
| 20260507215403 | 57 | 46 | 4.0 | 11.0 | 0.00 | 0.34 | 0.34 | 90 | 1013.2 |
| 20260507214503 | 57 | 47 | 4.0 | 11.0 | 0.00 | 0.34 | 0.34 | 90 | 1013.2 |
| 20260507213603 | 57 | 51 | 3.0 | 5.0 | 0.00 | 0.34 | 0.34 | 90 | 1013.2 |
| 20260507212703 | 57 | 76 | 2.0 | 4.0 | 0.00 | 0.34 | 0.34 | 90 | 1013.2 |
| 20260507211803 | 57 | 105 | 2.0 | 4.0 | 0.00 | 0.34 | 0.34 | 90 | 1013.5 |
| 20260507210903 | 57 | 134 | 3.0 | 5.0 | 0.00 | 0.34 | 0.34 | 89 | 1013.4 |
| 20260507210003 | 57 | 79 | 2.0 | 4.0 | 0.01 | 0.34 | 0.34 | 89 | 1013.4 |
| 20260507205403 | 57 | 48 | 2.0 | 6.0 | 0.01 | 0.34 | 0.34 | 89 | 1013.4 |
| 20260507204504 | 57 | 82 | 2.0 | 5.0 | 0.01 | 0.34 | 0.34 | 89 | 1013.3 |
| 20260507203603 | 57 | 71 | 2.0 | 4.0 | 0.01 | 0.34 | 0.34 | 89 | 1013.3 |
| 20260507202703 | 57 | 85 | 3.0 | 6.0 | 0.01 | 0.34 | 0.34 | 89 | 1013.1 |
| 20260507201803 | 56 | 33 | 4.0 | 9.0 | 0.01 | 0.34 | 0.34 | 90 | 1013.2 |
| 20260507200904 | 56 | 46 | 4.0 | 9.0 | 0.01 | 0.34 | 0.34 | 91 | 1013.1 |
| 20260507200004 | 57 | 47 | 4.0 | 8.0 | 0.00 | 0.33 | 0.33 | 93 | 1012.9 |
| 20260507195403 | 57 | 42 | 4.0 | 8.0 | 0.01 | 0.33 | 0.33 | 93 | 1012.9 |
| 20260507194503 | 57 | 61 | 4.0 | 8.0 | 0.03 | 0.33 | 0.33 | 93 | 1012.8 |
| 20260507193603 | 58 | 71 | 4.0 | 10.0 | 0.05 | 0.33 | 0.33 | 93 | 1012.7 |
| 20260507192703 | 58 | 89 | 4.0 | 7.0 | 0.07 | 0.33 | 0.33 | 93 | 1012.6 |
| 20260507191808 | 58 | 110 | 4.0 | 9.0 | 0.07 | 0.33 | 0.33 | 93 | 1012.6 |
| 20260507190904 | 58 | 62 | 4.0 | 8.0 | 0.07 | 0.33 | 0.33 | 93 | 1012.3 |
| 20260507190005 | 58 | 68 | 4.0 | 8.0 | 0.08 | 0.33 | 0.33 | 93 | 1012.3 |
| 20260507185403 | 58 | 71 | 4.0 | 8.0 | 0.07 | 0.32 | 0.32 | 93 | 1012.3 |
| 20260507184504 | 58 | 57 | 2.0 | 6.0 | 0.07 | 0.31 | 0.31 | 93 | 1012.1 |
| 20260507183603 | 58 | 43 | 3.0 | 6.0 | 0.06 | 0.29 | 0.29 | 92 | 1012.2 |
| 20260507182703 | 58 | 70 | 3.0 | 5.0 | 0.07 | 0.27 | 0.27 | 92 | 1012.0 |
| 20260507181803 | 58 | 79 | 3.0 | 7.0 | 0.07 | 0.26 | 0.26 | 92 | 1012.0 |
| 20260507180903 | 58 | 96 | 3.0 | 6.0 | 0.09 | 0.26 | 0.26 | 92 | 1011.9 |
| 20260507180004 | 58 | 107 | 1.0 | 3.0 | 0.11 | 0.25 | 0.25 | 92 | 1011.6 |
| 20260507175404 | 58 | 103 | 2.0 | 4.0 | 0.12 | 0.25 | 0.25 | 92 | 1011.5 |
| 20260507174503 | 58 | 79 | 3.0 | 5.0 | 0.13 | 0.24 | 0.24 | 91 | 1011.5 |
| 20260507173603 | 58 | 65 | 3.0 | 5.0 | 0.12 | 0.22 | 0.22 | 91 | 1011.4 |
| 20260507172703 | 58 | 43 | 4.0 | 9.0 | 0.11 | 0.20 | 0.20 | 91 | 1011.6 |
| 20260507171803 | 58 | 45 | 5.0 | 10.0 | 0.10 | 0.19 | 0.19 | 90 | 1011.7 |
| 20260507170903 | 58 | 50 | 4.0 | 8.0 | 0.08 | 0.16 | 0.17 | 90 | 1011.8 |
| 20260507170003 | 58 | 54 | 4.0 | 8.0 | 0.07 | 0.15 | 0.15 | 89 | 1012.0 |
| 20260507165403 | 58 | 51 | 4.0 | 9.0 | 0.06 | 0.13 | 0.13 | 89 | 1011.9 |
| 20260507164503 | 59 | 57 | 4.0 | 9.0 | 0.11 | 0.11 | 0.11 | 89 | 1011.7 |
| 20260507163603 | 59 | 63 | 5.0 | 11.0 | 0.11 | 0.11 | 0.11 | 89 | 1011.9 |
| 20260507162703 | 59 | 46 | 5.0 | 10.0 | 0.09 | 0.09 | 0.09 | 90 | 1011.9 |
| 20260507161803 | 59 | 44 | 5.0 | 9.0 | 0.09 | 0.09 | 0.09 | 89 | 1011.6 |
| 20260507160904 | 60 | 49 | 5.0 | 9.0 | 0.08 | 0.08 | 0.08 | 88 | 1011.9 |
| 20260507160004 | 60 | 80 | 5.0 | 10.0 | 0.08 | 0.08 | 0.08 | 88 | 1011.8 |
| 20260507155403 | 61 | 96 | 6.0 | 13.0 | 0.07 | 0.07 | 0.07 | 86 | 1011.9 |
| 20260507154503 | 62 | 84 | 7.0 | 15.0 | 0.00 | 0.00 | 0.00 | 83 | 1011.6 |
| 20260507153604 | 64 | 96 | 6.0 | 16.0 | 0.00 | 0.00 | 0.00 | 77 | 1011.4 |
| 20260507152703 | 64 | 68 | 5.0 | 11.0 | 0.00 | 0.00 | 0.00 | 67 | 1011.5 |
| 20260507151803 | 64 | 70 | 6.0 | 13.0 | 0.00 | 0.00 | 0.00 | 67 | 1011.5 |
| 20260507150904 | 64 | 68 | 6.0 | 12.0 | 0.00 | 0.00 | 0.00 | 70 | 1011.6 |
| 20260507150004 | 64 | 53 | 6.0 | 14.0 | 0.00 | 0.01 | 0.00 | 67 | 1011.4 |
| 20260507145403 | 65 | 58 | 6.0 | 14.0 | 0.00 | 0.03 | 0.00 | 69 | 1011.6 |
| 20260507144503 | 65 | 47 | 8.0 | 18.0 | 0.00 | 0.04 | 0.00 | 68 | 1011.6 |
| 20260507143603 | 65 | 53 | 7.0 | 17.0 | 0.00 | 0.04 | 0.00 | 68 | 1011.6 |
| 20260507142703 | 65 | 57 | 7.0 | 13.0 | 0.00 | 0.05 | 0.00 | 69 | 1011.5 |
| 20260507141803 | 65 | 72 | 7.0 | 15.0 | 0.00 | 0.07 | 0.00 | 69 | 1011.6 |
| 20260507140903 | 65 | 65 | 7.0 | 14.0 | 0.00 | 0.13 | 0.00 | 69 | 1011.9 |
| 20260507140003 | 66 | 77 | 7.0 | 15.0 | 0.00 | 0.15 | 0.00 | 68 | 1012.0 |
| 20260507135403 | 66 | 75 | 8.0 | 16.0 | 0.00 | 0.15 | 0.00 | 67 | 1011.8 |
| 20260507134503 | 66 | 72 | 8.0 | 14.0 | 0.00 | 0.15 | 0.00 | 67 | 1012.0 |
| 20260507133604 | 66 | 54 | 7.0 | 13.0 | 0.00 | 0.16 | 0.00 | 67 | 1012.0 |
| 20260507132703 | 66 | 44 | 6.0 | 14.0 | 0.00 | 0.16 | 0.00 | 68 | 1012.1 |
| 20260507131803 | 66 | 42 | 7.0 | 14.0 | 0.00 | 0.17 | 0.00 | 66 | 1012.1 |
| 20260507130903 | 66 | 38 | 7.0 | 14.0 | 0.00 | 0.18 | 0.00 | 67 | 1012.0 |
| 20260507130004 | 65 | 35 | 6.0 | 15.0 | 0.00 | 0.18 | 0.00 | 67 | 1012.3 |
| 20260507125404 | 65 | 34 | 6.0 | 15.0 | 0.00 | 0.18 | 0.00 | 67 | 1012.5 |
| 20260507124503 | 65 | 42 | 6.0 | 14.0 | 0.00 | 0.18 | 0.00 | 67 | 1012.3 |
| 20260507123603 | 65 | 53 | 6.0 | 12.0 | 0.00 | 0.18 | 0.00 | 68 | 1012.4 |
| 20260507122705 | 66 | 72 | 6.0 | 14.0 | 0.00 | 0.18 | 0.00 | 68 | 1012.3 |
| 20260507121803 | 66 | 78 | 6.0 | 14.0 | 0.00 | 0.18 | 0.00 | 67 | 1012.4 |
| 20260507120904 | 66 | 71 | 8.0 | 17.0 | 0.00 | 0.18 | 0.00 | 67 | 1012.6 |
| 20260507120004 | 66 | 75 | 7.0 | 16.0 | 0.00 | 0.18 | 0.00 | 65 | 1012.5 |
| 20260507115403 | 67 | 66 | 8.0 | 17.0 | 0.00 | 0.18 | 0.00 | 63 | 1012.5 |
| 20260507114504 | 67 | 77 | 7.0 | 12.0 | 0.00 | 0.18 | 0.00 | 62 | 1012.8 |
| 20260507113604 | 67 | 79 | 7.0 | 17.0 | 0.00 | 0.18 | 0.00 | 61 | 1012.6 |
| 20260507112703 | 68 | 72 | 6.0 | 14.0 | 0.00 | 0.18 | 0.00 | 61 | 1012.7 |
| 20260507111803 | 68 | 55 | 6.0 | 14.0 | 0.00 | 0.18 | 0.00 | 61 | 1012.6 |
| 20260507110903 | 67 | 31 | 8.0 | 14.0 | 0.00 | 0.18 | 0.00 | 62 | 1012.8 |
| 20260507110004 | 68 | 56 | 6.0 | 13.0 | 0.00 | 0.18 | 0.00 | 61 | 1012.9 |
| 20260507105403 | 67 | 38 | 7.0 | 16.0 | 0.00 | 0.18 | 0.00 | 62 | 1012.9 |
| 20260507104504 | 67 | 54 | 7.0 | 13.0 | 0.00 | 0.18 | 0.00 | 62 | 1013.0 |
| 20260507103603 | 67 | 70 | 6.0 | 13.0 | 0.00 | 0.18 | 0.00 | 60 | 1013.0 |
| 20260507102703 | 67 | 86 | 6.0 | 13.0 | 0.00 | 0.18 | 0.00 | 61 | 1013.1 |
| 20260507101803 | 66 | 85 | 7.0 | 15.0 | 0.00 | 0.18 | 0.00 | 63 | 1013.2 |